ITY0275 LIPZ-EDDP

Flight info

Callsign ITY0275
Flight time 1h 2m
Altitude 36000
Route ROKIB8X/04R ROKIB DCT GIKEB DCT EKPEB DCT BRENO DCT KONIN DCT ERNAS M726 LASGA T953 VOCIM/N0441F350 T954 GOXLI GOXLI1V
Aircraft A320/M-SDE3FGHIRWY/LB1

Departure

Time 2026-05-06 13:58
Airport Venice Marco Polo Airport (LIPZ)

Arrival

Time 2026-05-06 15:01
Airport Leipzig/Halle Airport (EDDP)
Time Latitude Longitude Altitude Speed Heading
2026-05-06 13:38 45.50428 12.34224 16 ft 0 kts 268°
2026-05-06 13:50 45.50428 12.34239 16 ft 4 kts 266°
2026-05-06 13:50 45.50431 12.34277 16 ft 4 kts 260°
2026-05-06 13:50 45.50437 12.34314 16 ft 4 kts 245°
2026-05-06 13:50 45.50452 12.34341 18 ft 4 kts 197°
2026-05-06 13:51 45.50459 12.34344 19 ft 0 kts 177°
2026-05-06 13:53 45.50458 12.34344 16 ft 0 kts 177°
2026-05-06 13:54 45.50420 12.34347 16 ft 11 kts 178°
2026-05-06 13:54 45.50321 12.34351 16 ft 17 kts 179°
2026-05-06 13:54 45.50180 12.34356 16 ft 23 kts 180°
2026-05-06 13:55 45.50032 12.34221 14 ft 29 kts 222°
2026-05-06 13:55 45.49874 12.34018 14 ft 32 kts 223°
2026-05-06 13:55 45.49705 12.33801 16 ft 32 kts 221°
2026-05-06 13:55 45.49564 12.33621 16 ft 18 kts 220°
2026-05-06 13:56 45.49471 12.33661 16 ft 17 kts 132°
2026-05-06 13:56 45.49436 12.33802 15 ft 12 kts 57°
2026-05-06 13:56 45.49455 12.33827 15 ft 0 kts 42°
2026-05-06 13:57 45.49500 12.33886 15 ft 37 kts 42°
2026-05-06 13:57 45.49883 12.34377 13 ft 107 kts 42°
2026-05-06 13:58 45.50579 12.35277 17 ft 160 kts 43°
2026-05-06 13:58 45.51378 12.36395 606 ft 159 kts 47°
2026-05-06 13:58 45.52188 12.37517 1283 ft 166 kts 47°
2026-05-06 13:58 45.53067 12.38759 1813 ft 190 kts 54°
2026-05-06 13:59 45.53603 12.40553 2360 ft 207 kts 86°
2026-05-06 13:59 45.53467 12.42617 3069 ft 213 kts 102°
2026-05-06 13:59 45.53238 12.44726 3807 ft 218 kts 101°
2026-05-06 13:59 45.53014 12.46881 4466 ft 222 kts 102°
2026-05-06 14:00 45.52786 12.49079 5034 ft 226 kts 102°
2026-05-06 14:00 45.52268 12.51183 5519 ft 231 kts 127°
2026-05-06 14:00 45.51055 12.52752 5806 ft 245 kts 159°
2026-05-06 14:00 45.49358 12.53219 6248 ft 256 kts 189°
2026-05-06 14:01 45.47711 12.52310 6939 ft 259 kts 219°
2026-05-06 14:01 45.46645 12.50263 7714 ft 264 kts 249°
2026-05-06 14:01 45.46526 12.47651 8535 ft 273 kts 279°
2026-05-06 14:01 45.47026 12.45048 9392 ft 277 kts 283°
2026-05-06 14:02 45.47601 12.42372 10164 ft 284 kts 283°
2026-05-06 14:02 45.48212 12.39568 10424 ft 308 kts 283°
2026-05-06 14:02 45.48863 12.36566 10793 ft 324 kts 283°
2026-05-06 14:02 45.49521 12.33524 11444 ft 330 kts 283°
2026-05-06 14:03 45.50172 12.30503 12158 ft 335 kts 283°
2026-05-06 14:03 45.50817 12.27480 12887 ft 339 kts 282°
2026-05-06 14:03 45.51496 12.24274 13646 ft 345 kts 282°
2026-05-06 14:03 45.52188 12.20985 14377 ft 349 kts 282°
2026-05-06 14:04 45.52896 12.17644 15124 ft 353 kts 282°
2026-05-06 14:04 45.53625 12.14285 15859 ft 356 kts 282°
2026-05-06 14:04 45.54367 12.10897 16583 ft 359 kts 282°
2026-05-06 14:04 45.55116 12.07484 17296 ft 363 kts 282°
2026-05-06 14:05 45.55875 12.04026 17970 ft 367 kts 282°
2026-05-06 14:05 45.56644 12.00538 18537 ft 371 kts 283°
2026-05-06 14:05 45.57737 11.97157 19101 ft 381 kts 296°
2026-05-06 14:05 45.59361 11.94103 19678 ft 392 kts 308°
2026-05-06 14:06 45.61459 11.91552 20254 ft 402 kts 321°
2026-05-06 14:06 45.63944 11.89623 20823 ft 411 kts 329°
2026-05-06 14:06 45.66532 11.87853 21393 ft 413 kts 328°
2026-05-06 14:06 45.69136 11.86073 21965 ft 416 kts 328°
2026-05-06 14:07 45.71757 11.84281 22518 ft 419 kts 328°
2026-05-06 14:07 45.74390 11.82481 23056 ft 422 kts 328°
2026-05-06 14:07 45.77055 11.80650 23501 ft 427 kts 327°
2026-05-06 14:07 45.79704 11.78821 23909 ft 430 kts 327°
2026-05-06 14:08 45.82435 11.76927 24328 ft 433 kts 327°
2026-05-06 14:08 45.85120 11.75060 24741 ft 435 kts 327°
2026-05-06 14:08 45.87886 11.73137 25175 ft 438 kts 327°
2026-05-06 14:08 45.90606 11.71251 25597 ft 440 kts 327°
2026-05-06 14:09 45.93455 11.69491 26010 ft 449 kts 334°
2026-05-06 14:09 45.96502 11.68329 26379 ft 459 kts 342°
2026-05-06 14:09 45.99654 11.67426 26731 ft 463 kts 342°
2026-05-06 14:09 46.02820 11.66525 27128 ft 465 kts 342°
2026-05-06 14:10 46.06010 11.65620 27471 ft 468 kts 342°
2026-05-06 14:10 46.09206 11.64706 27864 ft 470 kts 342°
2026-05-06 14:10 46.12428 11.63777 28222 ft 473 kts 341°
2026-05-06 14:10 46.15665 11.62839 28579 ft 476 kts 342°
2026-05-06 14:11 46.18877 11.61907 28875 ft 478 kts 341°
2026-05-06 14:11 46.22187 11.60946 29150 ft 481 kts 341°
2026-05-06 14:11 46.25437 11.60000 29470 ft 483 kts 341°
2026-05-06 14:11 46.28733 11.59034 29754 ft 484 kts 341°
2026-05-06 14:12 46.32044 11.58062 30020 ft 486 kts 341°
2026-05-06 14:12 46.35361 11.57088 30233 ft 488 kts 341°
2026-05-06 14:12 46.38701 11.56111 30480 ft 490 kts 341°
2026-05-06 14:12 46.42045 11.55137 30680 ft 490 kts 341°
2026-05-06 14:13 46.45388 11.54186 30863 ft 493 kts 343°
2026-05-06 14:13 46.48814 11.53583 31067 ft 498 kts 347°
2026-05-06 14:13 46.52266 11.53080 31353 ft 499 kts 347°
2026-05-06 14:13 46.55715 11.52585 31659 ft 498 kts 347°
2026-05-06 14:14 46.59165 11.52092 31938 ft 498 kts 347°
2026-05-06 14:14 46.62609 11.51599 32205 ft 498 kts 347°
2026-05-06 14:14 46.66058 11.51105 32527 ft 497 kts 347°
2026-05-06 14:14 46.69485 11.50591 32810 ft 493 kts 344°
2026-05-06 14:15 46.72768 11.49422 33000 ft 481 kts 334°
2026-05-06 14:15 46.75952 11.47940 33354 ft 480 kts 334°
2026-05-06 14:15 46.79133 11.46467 33700 ft 479 kts 334°
2026-05-06 14:15 46.82239 11.45031 34028 ft 479 kts 334°
2026-05-06 14:16 46.85404 11.43566 34254 ft 478 kts 334°
2026-05-06 14:16 46.88566 11.42095 34409 ft 477 kts 334°
2026-05-06 14:16 46.91733 11.40615 34651 ft 476 kts 334°
2026-05-06 14:16 46.94884 11.39144 34875 ft 476 kts 336°
2026-05-06 14:17 46.98132 11.38046 35122 ft 483 kts 345°
2026-05-06 14:17 47.01504 11.37630 35321 ft 490 kts 354°
2026-05-06 14:17 47.04910 11.37597 35556 ft 490 kts 354°
2026-05-06 14:17 47.08315 11.37568 35742 ft 489 kts 354°
2026-05-06 14:18 47.15098 11.37505 35756 ft 485 kts 354°
2026-05-06 14:18 47.21843 11.37433 35757 ft 484 kts 354°
2026-05-06 14:19 47.28497 11.37367 35753 ft 485 kts 354°
2026-05-06 14:19 47.35194 11.37308 35757 ft 485 kts 354°
2026-05-06 14:20 47.41943 11.37241 35752 ft 485 kts 354°
2026-05-06 14:20 47.48660 11.37175 35768 ft 486 kts 354°
2026-05-06 14:21 47.54322 11.37118 35753 ft 486 kts 354°
2026-05-06 14:21 47.61088 11.37044 35760 ft 486 kts 354°
2026-05-06 14:22 47.67848 11.36971 35781 ft 485 kts 355°
2026-05-06 14:22 47.74601 11.36910 35761 ft 485 kts 355°
2026-05-06 14:23 47.81356 11.36851 35785 ft 485 kts 355°
2026-05-06 14:23 47.88027 11.36454 35803 ft 481 kts 349°
2026-05-06 14:24 47.94688 11.35458 35804 ft 481 kts 349°
2026-05-06 14:24 48.01337 11.34479 35801 ft 480 kts 349°
2026-05-06 14:25 48.07989 11.33495 35798 ft 480 kts 349°
2026-05-06 14:25 48.14630 11.32500 35799 ft 479 kts 349°
2026-05-06 14:26 48.21262 11.31512 35796 ft 479 kts 349°
2026-05-06 14:26 48.27904 11.30515 35789 ft 479 kts 349°
2026-05-06 14:27 48.34534 11.29517 35780 ft 479 kts 349°
2026-05-06 14:27 48.41169 11.28513 35768 ft 479 kts 349°
2026-05-06 14:28 48.47794 11.27513 35792 ft 479 kts 349°
2026-05-06 14:28 48.54414 11.26517 35800 ft 479 kts 349°
2026-05-06 14:29 48.61009 11.25527 35793 ft 479 kts 349°
2026-05-06 14:29 48.67636 11.24517 35781 ft 479 kts 349°
2026-05-06 14:30 48.74283 11.23497 35770 ft 479 kts 349°
2026-05-06 14:30 48.80906 11.22484 35776 ft 479 kts 349°
2026-05-06 14:31 48.87579 11.21940 35770 ft 482 kts 356°
2026-05-06 14:31 48.94283 11.21981 35769 ft 482 kts 356°
2026-05-06 14:32 49.00985 11.22028 35782 ft 481 kts 356°
2026-05-06 14:32 49.07684 11.22080 35799 ft 481 kts 356°
2026-05-06 14:33 49.14381 11.22117 35779 ft 481 kts 356°
2026-05-06 14:33 49.21033 11.22150 35779 ft 481 kts 356°
2026-05-06 14:34 49.27731 11.22193 35780 ft 481 kts 356°
2026-05-06 14:34 49.34415 11.22245 35782 ft 481 kts 356°
2026-05-06 14:35 49.41117 11.22303 35785 ft 481 kts 356°
2026-05-06 14:35 49.47767 11.22364 35818 ft 481 kts 356°
2026-05-06 14:36 49.54459 11.22411 35807 ft 481 kts 356°
2026-05-06 14:36 49.61153 11.22440 35799 ft 480 kts 356°
2026-05-06 14:37 49.67839 11.22486 35801 ft 481 kts
2026-05-06 14:37 49.71148 11.23350 35797 ft 485 kts 16°
2026-05-06 14:37 49.74247 11.25430 35794 ft 487 kts 26°
2026-05-06 14:38 49.80240 11.30342 35781 ft 487 kts 27°
2026-05-06 14:38 49.86210 11.35322 35778 ft 488 kts 27°
2026-05-06 14:39 49.92179 11.40316 35795 ft 488 kts 27°
2026-05-06 14:39 49.98161 11.45284 35768 ft 487 kts 26°
2026-05-06 14:40 50.01144 11.47753 35524 ft 486 kts 26°
2026-05-06 14:40 50.04131 11.50235 34792 ft 488 kts 26°
2026-05-06 14:40 50.07135 11.52739 34020 ft 490 kts 26°
2026-05-06 14:40 50.10147 11.55255 33167 ft 494 kts 26°
2026-05-06 14:41 50.13160 11.57783 32558 ft 490 kts 27°
2026-05-06 14:41 50.16139 11.60288 32020 ft 484 kts 27°
2026-05-06 14:41 50.19090 11.62772 31495 ft 479 kts 27°
2026-05-06 14:41 50.21988 11.65216 30988 ft 475 kts 27°
2026-05-06 14:42 50.24872 11.67649 30497 ft 470 kts 27°
2026-05-06 14:42 50.27739 11.70066 30013 ft 465 kts 28°
2026-05-06 14:42 50.30569 11.72454 29484 ft 461 kts 28°
2026-05-06 14:42 50.33371 11.74822 28931 ft 456 kts 28°
2026-05-06 14:43 50.36152 11.77180 28409 ft 451 kts 28°
2026-05-06 14:43 50.38896 11.79512 27889 ft 447 kts 28°
2026-05-06 14:43 50.41611 11.81823 27373 ft 442 kts 28°
2026-05-06 14:43 50.44305 11.84116 26884 ft 438 kts 28°
2026-05-06 14:44 50.46966 11.86376 26407 ft 433 kts 28°
2026-05-06 14:44 50.49609 11.88622 25918 ft 429 kts 28°
2026-05-06 14:44 50.52215 11.90846 25456 ft 425 kts 28°
2026-05-06 14:45 50.57369 11.95264 24561 ft 418 kts 28°
2026-05-06 14:45 50.59907 11.97444 24131 ft 414 kts 28°
2026-05-06 14:45 50.62434 11.99613 23698 ft 411 kts 28°
2026-05-06 14:45 50.64929 12.01750 23263 ft 407 kts 28°
2026-05-06 14:46 50.67403 12.03871 22759 ft 404 kts 28°
2026-05-06 14:46 50.69857 12.05982 22278 ft 401 kts 28°
2026-05-06 14:46 50.72301 12.08096 21838 ft 397 kts 28°
2026-05-06 14:46 50.74711 12.10181 21397 ft 393 kts 28°
2026-05-06 14:47 50.77092 12.12246 20925 ft 390 kts 28°
2026-05-06 14:47 50.79463 12.14300 20464 ft 387 kts 28°
2026-05-06 14:47 50.81819 12.16338 20009 ft 385 kts 28°
2026-05-06 14:47 50.84161 12.18364 19559 ft 383 kts 28°
2026-05-06 14:48 50.86488 12.20381 19121 ft 381 kts 28°
2026-05-06 14:48 50.88810 12.22397 18691 ft 379 kts 28°
2026-05-06 14:48 50.91081 12.24371 18270 ft 377 kts 28°
2026-05-06 14:48 50.93374 12.26367 17822 ft 373 kts 28°
2026-05-06 14:49 50.95634 12.28338 17083 ft 370 kts 28°
2026-05-06 14:49 50.97879 12.30299 16393 ft 366 kts 28°
2026-05-06 14:49 51.00129 12.32268 15722 ft 362 kts 28°
2026-05-06 14:49 51.02320 12.34189 15085 ft 359 kts 28°
2026-05-06 14:50 51.04466 12.36071 14455 ft 355 kts 28°
2026-05-06 14:50 51.06619 12.37956 13840 ft 351 kts 28°
2026-05-06 14:50 51.08746 12.39823 13187 ft 348 kts 28°
2026-05-06 14:50 51.10853 12.41678 12472 ft 345 kts 28°
2026-05-06 14:51 51.12944 12.43523 11827 ft 343 kts 28°
2026-05-06 14:51 51.15022 12.45355 11441 ft 340 kts 28°
2026-05-06 14:51 51.17093 12.47178 11025 ft 338 kts 28°
2026-05-06 14:51 51.19143 12.48983 10627 ft 336 kts 28°
2026-05-06 14:52 51.21188 12.50786 10217 ft 334 kts 28°
2026-05-06 14:52 51.23195 12.52561 10025 ft 325 kts 28°
2026-05-06 14:52 51.25135 12.54279 9900 ft 314 kts 28°
2026-05-06 14:52 51.27024 12.55945 9618 ft 308 kts 28°
2026-05-06 14:53 51.28897 12.57599 9263 ft 306 kts 28°
2026-05-06 14:53 51.30744 12.59236 8885 ft 304 kts 28°
2026-05-06 14:53 51.32588 12.60871 8518 ft 302 kts 28°
2026-05-06 14:53 51.34418 12.62493 8141 ft 300 kts 28°
2026-05-06 14:54 51.36233 12.64101 7769 ft 298 kts 28°
2026-05-06 14:54 51.38037 12.65711 7387 ft 296 kts 28°
2026-05-06 14:54 51.39825 12.67314 7013 ft 293 kts 28°
2026-05-06 14:54 51.41639 12.68761 6648 ft 289 kts 14°
2026-05-06 14:55 51.43589 12.69013 6285 ft 280 kts 347°
2026-05-06 14:55 51.45343 12.67850 5813 ft 272 kts 319°
2026-05-06 14:55 51.46393 12.65449 5212 ft 258 kts 282°
2026-05-06 14:55 51.46317 12.62743 4876 ft 237 kts 244°
2026-05-06 14:56 51.45480 12.60591 4581 ft 221 kts 237°
2026-05-06 14:56 51.44903 12.58396 4313 ft 209 kts 256°
2026-05-06 14:56 51.44691 12.56123 4050 ft 203 kts 263°
2026-05-06 14:56 51.44579 12.53889 3794 ft 200 kts 264°
2026-05-06 14:57 51.44481 12.51669 3526 ft 200 kts 264°
2026-05-06 14:57 51.44385 12.49469 3261 ft 195 kts 264°
2026-05-06 14:57 51.44291 12.47353 3016 ft 190 kts 265°
2026-05-06 14:57 51.44197 12.45233 2780 ft 185 kts 265°
2026-05-06 14:58 51.44109 12.43237 2514 ft 180 kts 265°
2026-05-06 14:58 51.44020 12.41255 2273 ft 174 kts 266°
2026-05-06 14:58 51.43937 12.39397 2052 ft 161 kts 266°
2026-05-06 14:58 51.43860 12.37687 1851 ft 149 kts 266°
2026-05-06 14:59 51.43787 12.36062 1658 ft 145 kts 266°
2026-05-06 14:59 51.43714 12.34450 1460 ft 144 kts 267°
2026-05-06 14:59 51.43642 12.32848 1254 ft 144 kts 268°
2026-05-06 14:59 51.43569 12.31231 1050 ft 147 kts 268°
2026-05-06 15:00 51.43493 12.29588 864 ft 148 kts 269°
2026-05-06 15:00 51.43419 12.27975 659 ft 144 kts 268°
2026-05-06 15:00 51.43345 12.26367 466 ft 144 kts 269°
2026-05-06 15:00 51.43283 12.24957 449 ft 103 kts 266°
2026-05-06 15:01 51.43241 12.24086 441 ft 47 kts 265°
2026-05-06 15:01 51.43185 12.23769 433 ft 18 kts 237°
2026-05-06 15:01 51.43146 12.23678 434 ft 7 kts 236°
2026-05-06 15:01 51.43131 12.23642 435 ft 3 kts 236°
2026-05-06 15:02 51.43123 12.23623 440 ft 1 kts 236°
2026-05-06 15:02 51.43118 12.23610 436 ft 2 kts 236°
2026-05-06 15:02 51.43108 12.23587 436 ft 1 kts 237°
2026-05-06 15:02 51.43099 12.23565 432 ft 3 kts 237°
2026-05-06 15:03 51.43083 12.23524 443 ft 5 kts 238°
2026-05-06 15:03 51.43054 12.23470 433 ft 8 kts 221°
2026-05-06 15:03 51.42981 12.23431 441 ft 16 kts 179°
2026-05-06 15:03 51.42896 12.23543 432 ft 13 kts 95°
2026-05-06 15:04 51.42909 12.23652 437 ft 12 kts 84°
2026-05-06 15:04 51.42914 12.23757 434 ft 11 kts 86°
2026-05-06 15:04 51.42921 12.23914 440 ft 18 kts 85°
2026-05-06 15:04 51.42932 12.24141 437 ft 22 kts 85°
2026-05-06 15:05 51.42945 12.24416 438 ft 27 kts 85°
2026-05-06 15:05 51.42961 12.24736 435 ft 29 kts 85°
2026-05-06 15:05 51.42972 12.24990 448 ft 17 kts 88°
2026-05-06 15:05 51.42870 12.25061 450 ft 22 kts 195°
2026-05-06 15:06 51.42708 12.24997 459 ft 25 kts 195°
2026-05-06 15:06 51.42564 12.24944 468 ft 20 kts 194°
2026-05-06 15:06 51.42433 12.24894 475 ft 20 kts 192°
2026-05-06 15:06 51.42288 12.24837 485 ft 23 kts 193°
2026-05-06 15:07 51.42122 12.24773 491 ft 27 kts 193°
2026-05-06 15:07 51.41924 12.24698 490 ft 29 kts 192°
2026-05-06 15:07 51.41768 12.24640 476 ft 18 kts 192°
2026-05-06 15:07 51.41671 12.24581 477 ft 16 kts 232°
2026-05-06 15:08 51.41652 12.24370 473 ft 21 kts 268°
2026-05-06 15:08 51.41638 12.24109 477 ft 26 kts 264°
2026-05-06 15:08 51.41622 12.23778 472 ft 33 kts 266°
2026-05-06 15:08 51.41603 12.23403 465 ft 32 kts 265°
2026-05-06 15:09 51.41608 12.23190 461 ft 28 kts 283°
2026-05-06 15:09 51.41658 12.22892 455 ft 29 kts 286°
2026-05-06 15:09 51.41716 12.22560 441 ft 31 kts 284°
2026-05-06 15:09 51.41765 12.22264 428 ft 22 kts 285°
2026-05-06 15:10 51.41802 12.22057 432 ft 19 kts 286°
2026-05-06 15:10 51.41835 12.21929 433 ft 8 kts 336°
2026-05-06 15:10 51.41894 12.21944 436 ft 9 kts 15°
2026-05-06 15:10 51.41927 12.21959 432 ft 2 kts 16°
2026-05-06 15:11 51.41928 12.21959 432 ft 0 kts 16°